STARLINK-32263, 60371

Orbit data source: Space-Track

STARLINK-32263, 60371 is a payload satellite owned by SpaceX/Seattle (US) in LEO that was launched on Sun, 04 Aug 2024 UTC via an FALCON 9 launch vehicle from the Air Force Western Test Range (AFWTR). Payload-class satellites include a variety of spacecraft equipped with specific instruments for various scientific and technological missions. These include communications satellites like Starlink; space stations such as the ISS; scientific satellites like the Hubble; Earth observation satellites from companies like Planet Labs, Umbra, and HawkEye 360; GPS; miniature CubeSats for education and research; and military/defense satellites.

Loading next visibility...
Identifier
60371, 2024-138S
Orbit
LEO
Country
Flag of USUS
Related business
Manufacturer
SpaceX/Seattle
Mission
Operational Commercial Communications
Bus & Motor
STARLINK V2M, Unknown motor
Mass
730 kg wet, ~700 kg dry
Launch date (UTC)
2024-08-04 (1 year ago)
Launch vehicle
FALCON 9
Launch site
Air Force Western Test Range (AFWTR)
Object type
Payload
Rocket body
Debris
Shape & HBR
Box + 2 Pan, 17.7 m
Radar Cross Section
33.884 m², Large (>1 m²)

Expand to show TLE details & history
Last TLE update: 6 hours ago

TLE from 6 hours ago
0 STARLINK-32263
1 60371U 24138S   25354.14802227 -.00005429  00000-0 -17126-3 0  9992
2 60371  53.1616 318.7665 0001093 100.5309 259.5815 15.30209337 78359
Epoch: 2025-12-20T03:33Z
TLE epoch observation values (Epoch: 2025-12-20T03:33:09.124Z)
Latitude
Longitude
176.4995°
Altitude
476.223 km
Speed
7.629 km/s
True Right ascension
21h 15m 03s
True Declination
0° 00' 00"
Sunlit
Object was in daylight at epoch
Visualization orbit readout
Latitude
Unknown
Longitude
Unknown
Altitude
Unknown
Speed
Unknown
Apparent Right ascension
Unknown
Apparent Declination
Unknown
Sunlit
N/A
Visualization observer readout
Local Sidereal Time
08:02:26
Azimuth
Unknown
Elevation
Unknown
Doppler factor
Unknown
Orbital elements
Apogee altitude
476.192 km
Perigee altitude
474.694 km
Semi-major axis
6,853.58 km
Eccentricity
0.00011
Inclination
53.1616°
RAAN
318.7665°
Arg. of periapsis
100.5309°
True anomaly
259.56918°
Mean anomaly
259.5815°
Eccentric anomaly
259.57534°
Mean motion
3.82531 °/min
Orbital period
94.11 mins
BSTAR
-0.00017126
Loading maneuver chart data...
Computing Atmospheric mass density...
Loading historical data...
Loading historical data...
Loading historical data...
Loading historical data...
Loading historical data...
Loading historical data...
Loading historical data...

Documentation

Showing up to 5 results
|